When you browse on this site, cookies collect data to enhance your experience and personalize the content and advertising you see.
Visit our Privacy Policy to learn more. By continuing to use the site, you agree to this use of cookies and data.
  • En España
  • Lista de países
  • Para 7 días
  • Temperatura del agua
  • El tiempo en el mapa
  • Informadores
  • user-avatar
    Iniciar sesión

    Tiempo cada hora Sololá

    Hoy, 22 Febrero, Sábado

    Tiempo Temperatura Precipitaciones Viento Presión Humedad
    00:00 +11°C° 0 mm 3 mps 596 mmHg 83%
    01:00 +12°C° 0 mm 3 mps 595 mmHg 82%
    02:00 +12°C° 0 mm 3 mps 595 mmHg 81%
    03:00 +13°C° 0 mm 2 mps 595 mmHg 81%
    04:00 +13°C° 0 mm 2 mps 595 mmHg 80%
    05:00 +13°C° 0 mm 2 mps 595 mmHg 80%
    06:00 +12°C° 0 mm 3 mps 595 mmHg 80%
    07:00 +15°C° 0 mm 2 mps 596 mmHg 73%
    08:00 +17°C° 0 mm 2 mps 597 mmHg 66%
    09:00 +19°C° 0 mm 2 mps 599 mmHg 59%
    10:00 +20°C° 0 mm 2 mps 599 mmHg 55%
    11:00 +21°C° 0 mm 2 mps 599 mmHg 51%
    12:00 +23°C° 0 mm 2 mps 600 mmHg 47%
    13:00 +23°C° 0 mm 2 mps 599 mmHg 47%
    14:00 +23°C° 0 mm 2 mps 598 mmHg 47%
    15:00 +23°C° 0 mm 2 mps 598 mmHg 46%
    16:00 +20°C° 0 mm 2 mps 597 mmHg 55%
    17:00 +19°C° 0 mm 2 mps 597 mmHg 63%
    18:00 +17°C° 0 mm 2 mps 596 mmHg 72%
    19:00 +16°C° 0 mm 2 mps 596 mmHg 77%
    20:00 +14°C° 0 mm 2 mps 596 mmHg 81%
    21:00 +13°C° 0 mm 2 mps 596 mmHg 86%
    22:00 +13°C° 0 mm 2 mps 596 mmHg 85%
    23:00 +13°C° 0 mm 2 mps 596 mmHg 84%

    Mañana, 23 Febrero, Domingo

    Tiempo Temperatura Precipitaciones Viento Presión Humedad
    00:00 +13°C° 0 mm 2 mps 595 mmHg 83%
    01:00 +13°C° 0 mm 2 mps 595 mmHg 83%
    02:00 +12°C° 0 mm 2 mps 594 mmHg 83%
    03:00 +12°C° 0 mm 2 mps 593 mmHg 83%
    04:00 +12°C° 0 mm 2 mps 594 mmHg 82%
    05:00 +12°C° 0 mm 2 mps 594 mmHg 81%
    06:00 +10°C° 0 mm 2 mps 594 mmHg 81%
    07:00 +14°C° 0 mm 2 mps 596 mmHg 71%
    08:00 +18°C° 0 mm 1 mps 597 mmHg 62%
    09:00 +20°C° 0 mm 1 mps 599 mmHg 53%
    10:00 +22°C° 0 mm 1 mps 599 mmHg 48%
    11:00 +24°C° 0 mm 2 mps 599 mmHg 43%
    12:00 +25°C° 0 mm 2 mps 600 mmHg 38%
    13:00 +24°C° 0 mm 2 mps 598 mmHg 44%
    14:00 +23°C° 0 mm 2 mps 597 mmHg 49%
    15:00 +21°C° 0 mm 2 mps 596 mmHg 55%
    16:00 +20°C° 0.1 mm 2 mps 595 mmHg 64%
    17:00 +19°C° 0.1 mm 1 mps 595 mmHg 72%
    18:00 +16°C° 0.1 mm 1 mps 594 mmHg 81%
    19:00 +15°C° 0 mm 1 mps 594 mmHg 84%
    20:00 +14°C° 0 mm 1 mps 594 mmHg 87%
    21:00 +13°C° 0 mm 1 mps 594 mmHg 90%
    22:00 +13°C° 0 mm 1 mps 594 mmHg 89%
    23:00 +13°C° 0 mm 1 mps 594 mmHg 87%

    Pasado mañana, 24 Febrero, Lunes

    Tiempo Temperatura Precipitaciones Viento Presión Humedad
    00:00 +12°C° 0 mm 1 mps 594 mmHg 86%
    01:00 +12°C° 0 mm 1 mps 593 mmHg 84%
    02:00 +12°C° 0 mm 1 mps 593 mmHg 82%
    03:00 +12°C° 0 mm 1 mps 592 mmHg 80%
    04:00 +12°C° 0 mm 1 mps 592 mmHg 79%
    05:00 +12°C° 0 mm 1 mps 592 mmHg 78%
    06:00 +11°C° 0 mm 1 mps 592 mmHg 78%
    07:00 +14°C° 0 mm 1 mps 594 mmHg 71%
    08:00 +18°C° 0 mm 1 mps 596 mmHg 64%
    09:00 +21°C° 0 mm 1 mps 597 mmHg 57%
    10:00 +21°C° 0 mm 2 mps 597 mmHg 53%
    11:00 +23°C° 0 mm 2 mps 597 mmHg 50%
    12:00 +24°C° 0 mm 3 mps 597 mmHg 47%
    13:00 +22°C° 0.1 mm 3 mps 596 mmHg 56%
    14:00 +21°C° 0.1 mm 2 mps 595 mmHg 64%
    15:00 +19°C° 0.1 mm 2 mps 594 mmHg 73%
    16:00 +18°C° 0.1 mm 2 mps 593 mmHg 79%
    17:00 +18°C° 0.1 mm 1 mps 593 mmHg 84%
    18:00 +16°C° 0.1 mm 1 mps 593 mmHg 89%
    19:00 +15°C° 0 mm 1 mps 593 mmHg 91%
    20:00 +15°C° 0 mm 1 mps 593 mmHg 93%
    21:00 +14°C° 0 mm 1 mps 593 mmHg 94%
    22:00 +13°C° 0 mm 1 mps 593 mmHg 93%
    23:00 +13°C° 0 mm 1 mps 593 mmHg 92%

    25 Febrero, Martes

    Tiempo Temperatura Precipitaciones Viento Presión Humedad
    00:00 +13°C° 0 mm 1 mps 592 mmHg 91%
    01:00 +13°C° 0 mm 1 mps 592 mmHg 91%
    02:00 +12°C° 0 mm 1 mps 592 mmHg 90%
    03:00 +12°C° 0 mm 1 mps 591 mmHg 90%
    04:00 +12°C° 0 mm 1 mps 591 mmHg 90%
    05:00 +12°C° 0 mm 1 mps 592 mmHg 90%
    06:00 +12°C° 0 mm 1 mps 592 mmHg 90%
    07:00 +14°C° 0 mm 1 mps 593 mmHg 80%
    08:00 +18°C° 0 mm 1 mps 595 mmHg 71%
    09:00 +20°C° 0 mm 1 mps 596 mmHg 62%
    10:00 +21°C° 0 mm 2 mps 596 mmHg 55%
    11:00 +23°C° 0 mm 2 mps 597 mmHg 48%
    12:00 +25°C° 0 mm 3 mps 597 mmHg 41%
    13:00 +24°C° 0 mm 3 mps 596 mmHg 45%
    14:00 +22°C° 0 mm 3 mps 595 mmHg 49%
    15:00 +21°C° 0 mm 3 mps 595 mmHg 52%
    16:00 +20°C° 0.1 mm 2 mps 594 mmHg 63%
    17:00 +18°C° 0.1 mm 2 mps 593 mmHg 74%
    18:00 +16°C° 0.1 mm 1 mps 593 mmHg 84%
    19:00 +16°C° 0 mm 1 mps 593 mmHg 87%
    20:00 +15°C° 0 mm 1 mps 593 mmHg 89%
    21:00 +13°C° 0 mm 0 mps 594 mmHg 92%
    22:00 +13°C° 0 mm 0 mps 593 mmHg 92%
    23:00 +12°C° 0 mm 0 mps 593 mmHg 92%

    26 Febrero, Miércoles

    Tiempo Temperatura Precipitaciones Viento Presión Humedad
    00:00 +12°C° 0 mm 0 mps 593 mmHg 92%
    01:00 +12°C° 0 mm 0 mps 593 mmHg 91%
    02:00 +12°C° 0 mm 0 mps 592 mmHg 90%
    03:00 +12°C° 0 mm 1 mps 592 mmHg 89%
    04:00 +12°C° 0 mm 1 mps 592 mmHg 89%
    05:00 +12°C° 0 mm 1 mps 592 mmHg 89%
    06:00 +12°C° 0 mm 1 mps 593 mmHg 89%
    07:00 +15°C° 0 mm 1 mps 594 mmHg 79%
    08:00 +19°C° 0 mm 1 mps 596 mmHg 69%
    09:00 +21°C° 0 mm 1 mps 597 mmHg 59%
    10:00 +22°C° 0 mm 1 mps 597 mmHg 55%
    11:00 +23°C° 0 mm 2 mps 598 mmHg 52%
    12:00 +24°C° 0 mm 2 mps 598 mmHg 48%
    13:00 +23°C° 0.4 mm 2 mps 596 mmHg 56%
    14:00 +20°C° 0.4 mm 2 mps 595 mmHg 65%
    15:00 +20°C° 0.4 mm 1 mps 594 mmHg 73%
    16:00 +19°C° 0.6 mm 1 mps 594 mmHg 78%
    17:00 +18°C° 0.6 mm 1 mps 594 mmHg 83%
    18:00 +15°C° 0.6 mm 0 mps 594 mmHg 88%
    19:00 +15°C° 0.2 mm 1 mps 594 mmHg 88%
    20:00 +15°C° 0.2 mm 1 mps 594 mmHg 89%
    21:00 +14°C° 0.2 mm 1 mps 595 mmHg 90%
    22:00 +14°C° 0 mm 1 mps 594 mmHg 90%
    23:00 +13°C° 0 mm 2 mps 594 mmHg 91%

    27 Febrero, Jueves

    Tiempo Temperatura Precipitaciones Viento Presión Humedad
    00:00 +13°C° 0 mm 2 mps 594 mmHg 91%
    01:00 +13°C° 0 mm 2 mps 594 mmHg 90%
    02:00 +13°C° 0 mm 2 mps 593 mmHg 89%
    03:00 +13°C° 0 mm 2 mps 593 mmHg 89%
    04:00 +13°C° 0 mm 2 mps 593 mmHg 88%
    05:00 +13°C° 0 mm 2 mps 594 mmHg 88%
    06:00 +13°C° 0 mm 2 mps 594 mmHg 88%
    07:00 +15°C° 0 mm 2 mps 595 mmHg 82%
    08:00 +16°C° 0 mm 2 mps 596 mmHg 76%
    09:00 +18°C° 0 mm 2 mps 598 mmHg 69%
    10:00 +19°C° 0.1 mm 2 mps 598 mmHg 64%
    11:00 +19°C° 0.1 mm 2 mps 598 mmHg 59%
    12:00 +20°C° 0.1 mm 2 mps 599 mmHg 54%
    13:00 +20°C° 0.1 mm 2 mps 598 mmHg 58%
    14:00 +19°C° 0.1 mm 2 mps 597 mmHg 61%
    15:00 +18°C° 0.1 mm 2 mps 596 mmHg 65%
    16:00 +17°C° 0.2 mm 2 mps 596 mmHg 70%
    17:00 +16°C° 0.2 mm 2 mps 596 mmHg 75%
    18:00 +14°C° 0.2 mm 2 mps 595 mmHg 80%
    19:00 +14°C° 0 mm 2 mps 595 mmHg 82%
    20:00 +13°C° 0 mm 2 mps 595 mmHg 84%
    21:00 +11°C° 0 mm 3 mps 595 mmHg 85%
    22:00 +11°C° 0 mm 3 mps 595 mmHg 84%
    23:00 +11°C° 0 mm 3 mps 595 mmHg 83%
    Mostrar más